Flag for U.S.A. Weather past 2 weeks in Portsmouth, Virginia, U.S.A.

Now
74 °F

Scattered clouds.


Feels Like: 76 °F
Forecast: 65 / 75 °F
Wind: 13 mph from Northeast

Location: Norfolk Naval Air Station

Current Time: Oct 1, 2014 at 11:21:15 AM

Latest Report: Oct 1, 2014 at 10:59 AM


Visibility: 10 mi

Pressure: 30.02 "Hg

Humidity: 67%

Dew point: 62 °F

Location of PortsmouthLocation

Historic Weather in Portsmouth — Graph

°F

Portsmouth temperature yesterday

Maximum temperature yesterday: 76 °F (at 2:59 PM)
Minimum temperature yesterday: 66 °F (at 3:59 AM)
Average temperature yesterday: 70 °F

Past Weeks' High & Low Weather Summary

 TemperatureHumidityPressure
High81 °F (Sep 21, 4:59 PM)93% (Sep 24, 8:59 PM)30.34 "Hg (Sep 24, 8:59 PM)
Low62 °F (Sep 28, 1:59 AM)40% (Sep 22, 10:59 AM)29.72 "Hg (Sep 21, 3:59 PM)
Average71 °F72%30.09 "Hg
* Reported Sep 16 9:59 AM — Oct 1 9:59 AM, Portsmouth, Weather by CustomWeather, © 2014

Note: Actual official high and low records may vary slightly from our data, if they occured in-between our weather recording intervals... More about our weather records

Advertising

Portsmouth weather history for previous 24 hours

 ConditionsComfort  
Time TempWeatherWind HumidityBarometerVisibility
9:59 AM
Oct 1
73 °FPassing clouds.10 mph71%30.01 "Hg10 mi
8:59 AM71 °FPassing clouds.12 mph73%29.98 "Hg10 mi
7:59 AM70 °FPassing clouds.13 mph81%29.97 "Hg10 mi
6:59 AM68 °FPassing clouds.6 mph87%29.95 "Hg10 mi
5:59 AM68 °FPassing clouds.8 mph78%29.94 "Hg10 mi
4:59 AM69 °FPartly cloudy.8 mph84%29.93 "Hg10 mi
3:59 AM68 °FPassing clouds.6 mph84%29.92 "Hg10 mi
2:59 AM69 °FPassing clouds.8 mph84%29.93 "Hg10 mi
1:59 AM69 °FPassing clouds.8 mph84%29.93 "Hg10 mi
12:59 AM70 °FPassing clouds.7 mph81%29.93 "Hg10 mi
11:59 PM
Sep 30
70 °FPassing clouds.6 mph84%29.93 "Hg10 mi
10:59 PM67 °FPassing clouds.No wind85%29.92 "Hg10 mi
9:59 PM69 °FPassing clouds.5 mph79%29.92 "Hg10 mi
8:59 PM68 °FPassing clouds.3 mph82%29.91 "Hg10 mi
7:59 PM70 °FPassing clouds.5 mph76%29.89 "Hg10 mi
6:59 PM71 °FPassing clouds.6 mph73%29.88 "Hg10 mi
5:59 PM73 °FScattered clouds.9 mph74%29.88 "Hg10 mi
4:59 PM74 °FScattered clouds.10 mph71%29.88 "Hg10 mi
3:59 PM75 °FScattered clouds.12 mph69%29.88 "Hg10 mi
2:59 PM76 °FScattered clouds.9 mph64%29.88 "Hg10 mi
1:59 PM75 °FPassing clouds.8 mph64%29.89 "Hg10 mi
12:59 PM75 °FPassing clouds.7 mph62%29.91 "Hg10 mi
11:59 AM74 °FPassing clouds.9 mph71%29.93 "Hg10 mi
Weather by CustomWeather, © 2014

See weather overviewHow to use our weather pages